CW1390 Weather Reports


Display with metric or nautical units.
time (UTC)temp
F
wind
direction
speed
MPH
gust
MPH
rain 1hr
in
rain 24hr
in
rain mn
in
humidity
%
barometer
mb
20260504184022 69 155 2.0 13.0 0.00 0.00 0.00 41 1010.7
20260504183530 70 195 3.0 14.0 0.00 0.00 0.00 40 1010.8
20260504183038 69 220 3.0 14.0 0.00 0.00 0.00 41 1010.9
20260504182549 69 183 4.0 13.0 0.00 0.00 0.00 40 1011.0
20260504182057 68 203 4.0 14.0 0.00 0.00 0.00 41 1011.1
20260504181512 68 182 4.0 14.0 0.00 0.00 0.00 39 1011.0
20260504181020 68 152 4.0 15.0 0.00 0.00 0.00 39 1011.1
20260504180533 68 214 7.0 15.0 0.00 0.00 0.00 38 1011.2
20260504180038 68 213 4.0 13.0 0.00 0.00 0.00 40 1011.2
20260504175552 67 212 4.0 13.0 0.00 0.00 0.00 39 1011.3
20260504175058 67 295 7.0 13.0 0.00 0.00 0.00 39 1011.3
20260504174510 66 306 6.0 17.0 0.00 0.00 0.00 40 1011.4
20260504174016 65 216 6.0 17.0 0.00 0.00 0.00 40 1011.4
20260504173528 65 203 6.0 17.0 0.00 0.00 0.00 41 1011.5
20260504173028 65 223 5.0 13.0 0.00 0.00 0.00 41 1011.5
20260504172534 65 224 6.0 19.0 0.00 0.00 0.00 41 1011.5
20260504172034 65 233 7.0 19.0 0.00 0.00 0.00 40 1011.6
20260504171540 64 224 6.0 16.0 0.00 0.00 0.00 41 1011.5
20260504171042 64 196 6.0 20.0 0.00 0.00 0.00 41 1011.7
20260504170546 64 237 6.0 20.0 0.00 0.00 0.00 41 1011.5
20260504151014 61 340 10.0 19.0 0.00 0.00 0.00 44 1012.9
20260504150508 60 340 9.0 21.0 0.00 0.00 0.00 44 1013.0
20260504141047 58 340 6.0 13.0 0.00 0.00 0.00 50 1013.4
20260504140549 57 340 6.0 14.0 0.00 0.00 0.00 51 1013.4
20260504130511 55 340 3.0 14.0 0.00 0.00 0.00 55 1013.6
20260504110549 48 252 2.0 6.0 0.00 0.00 0.00 58 1013.8
20260504100522 45 239 1.0 3.0 0.00 0.00 0.00 62 1013.4
20260504081534 43 223 0.0 3.0 0.00 0.00 0.00 64 1012.7
20260504081039 43 223 1.0 3.0 0.00 0.00 0.00 64 1012.8
20260504080539 43 221 0.0 0.0 0.00 0.00 0.00 64 1012.7
20260504050555 43 247 0.0 0.0 0.00 0.00 0.00 62 1012.3
20260504050508 43 247 0.0 0.0 0.00 0.00 0.00 61 1012.3
20260504050009 43 247 0.0 2.0 0.00 0.00 0.00 61 1012.4
20260504045520 43 247 1.0 2.0 0.00 0.00 0.00 60 1012.4
20260504045021 44 247 0.0 0.0 0.00 0.00 0.00 59 1012.4
20260504044532 44 247 0.0 0.0 0.00 0.00 0.00 59 1012.4
20260504044032 44 247 0.0 0.0 0.00 0.00 0.00 60 1012.3
20260504043540 44 247 0.0 0.0 0.00 0.00 0.00 60 1012.4
20260504043040 45 247 0.0 0.0 0.00 0.00 0.00 59 1012.5
20260504042554 45 247 0.0 2.0 0.00 0.00 0.00 59 1012.4
20260504042058 45 247 0.0 2.0 0.00 0.00 0.00 58 1012.5
20260504041514 46 248 0.0 2.0 0.00 0.00 0.00 56 1012.5
20260504041018 46 248 0.0 0.0 0.00 0.00 0.00 55 1012.3
20260504040532 46 248 0.0 0.0 0.00 0.00 0.00 55 1012.2
20260504040043 46 248 0.0 0.0 0.00 0.00 0.00 56 1012.3
20260504035550 46 248 0.0 3.0 0.00 0.00 0.00 56 1012.3
20260504035010 47 248 0.0 3.0 0.00 0.00 0.00 52 1012.3
20260504034511 47 248 0.0 0.0 0.00 0.00 0.00 51 1012.2
20260504034028 47 340 0.0 0.0 0.00 0.00 0.00 51 1012.2
20260504033530 48 340 0.0 0.0 0.00 0.00 0.00 51 1012.2
20260504033042 48 340 0.0 0.0 0.00 0.00 0.00 50 1012.2
20260504032553 48 249 0.0 0.0 0.00 0.00 0.00 49 1012.2
20260504032003 48 249 0.0 0.0 0.00 0.00 0.00 48 1012.3
20260504031509 48 249 0.0 0.0 0.00 0.00 0.00 47 1012.3
20260504031022 48 249 0.0 0.0 0.00 0.00 0.00 47 1012.1
20260504030526 49 249 0.0 0.0 0.00 0.00 0.00 46 1012.1
20260504030032 49 249 0.0 0.0 0.00 0.00 0.00 45 1012.1
20260504025533 49 249 0.0 0.0 0.00 0.00 0.00 45 1012.1
20260504025040 49 249 0.0 0.0 0.00 0.00 0.00 44 1012.1
20260504024549 49 249 0.0 0.0 0.00 0.00 0.00 45 1012.1
20260504024002 49 249 0.0 0.0 0.00 0.00 0.00 45 1012.2
20260504023510 49 249 0.0 0.0 0.00 0.00 0.00 45 1012.2
20260504023023 49 249 0.0 0.0 0.00 0.00 0.00 45 1012.2
20260504022531 50 249 0.0 0.0 0.00 0.00 0.00 44 1012.2
20260504022043 50 249 0.0 0.0 0.00 0.00 0.00 44 1012.2
20260504021553 50 249 0.0 1.0 0.00 0.00 0.00 43 1012.2
20260504021058 50 249 0.0 2.0 0.00 0.00 0.00 44 1012.2
20260504020558 50 249 0.0 2.0 0.00 0.00 0.00 43 1012.2
20260504020006 50 249 0.0 2.0 0.00 0.00 0.00 43 1012.1
20260504015505 50 249 0.0 2.0 0.00 0.00 0.00 43 1012.1
20260504015016 51 249 0.0 2.0 0.00 0.00 0.00 42 1012.1
20260504014510 51 249 0.0 1.0 0.00 0.00 0.00 42 1012.0
20260504014021 51 249 0.0 0.0 0.00 0.00 0.00 41 1011.9
20260504013524 51 249 0.0 0.0 0.00 0.00 0.00 40 1011.9
20260504013041 52 249 0.0 0.0 0.00 0.00 0.00 40 1011.7
20260504012546 52 249 0.0 0.0 0.00 0.00 0.00 39 1011.7
20260504012100 52 249 0.0 1.0 0.00 0.00 0.00 38 1011.7
20260504012003 52 249 0.0 1.0 0.00 0.00 0.00 38 1011.6
20260504011520 52 249 0.0 1.0 0.00 0.00 0.00 38 1011.7
20260504011023 52 249 0.0 1.0 0.00 0.00 0.00 38 1011.6
20260504010541 52 249 0.0 1.0 0.00 0.00 0.00 38 1011.5
20260504010104 53 249 0.0 0.0 0.00 0.00 0.00 37 1011.4
20260504005505 53 249 0.0 0.0 0.00 0.00 0.00 37 1011.2
20260504005014 53 249 0.0 1.0 0.00 0.00 0.00 37 1011.1
20260504004524 53 249 0.0 1.0 0.00 0.00 0.00 37 1011.1
20260504004029 53 249 0.0 3.0 0.00 0.00 0.00 36 1011.0
20260504003544 53 249 0.0 3.0 0.00 0.00 0.00 35 1011.0
20260504003048 53 257 0.0 2.0 0.00 0.00 0.00 36 1011.0
20260504002555 53 257 0.0 3.0 0.00 0.00 0.00 35 1010.9
20260504002055 54 257 0.0 3.0 0.00 0.00 0.00 35 1010.9
20260504001603 54 264 0.0 2.0 0.00 0.00 0.00 34 1010.8
20260504001502 54 264 0.0 2.0 0.00 0.00 0.00 34 1010.9
20260504001012 54 261 0.0 2.0 0.00 0.00 0.00 33 1010.7
20260504000525 54 261 0.0 2.0 0.00 0.00 0.00 33 1010.6
20260504000042 55 261 0.0 3.0 0.00 0.00 0.00 33 1010.6
20260503235549 55 259 1.0 5.0 0.00 0.00 0.00 33 1010.5
20260503235056 55 259 1.0 5.0 0.00 0.00 0.00 32 1010.4
20260503234512 55 340 0.0 3.0 0.00 0.00 0.00 32 1010.4
20260503234020 56 286 0.0 3.0 0.00 0.00 0.00 32 1010.4
20260503233531 56 284 0.0 3.0 0.00 0.00 0.00 32 1010.3
20260503233048 56 280 1.0 6.0 0.00 0.00 0.00 31 1010.2
20260503232553 56 340 2.0 9.0 0.00 0.00 0.00 30 1010.2
20260503232002 56 245 3.0 11.0 0.00 0.00 0.00 30 1010.1
20260503231508 57 304 3.0 10.0 0.00 0.00 0.00 30 1010.1
20260503231008 57 298 2.0 8.0 0.00 0.00 0.00 30 1010.2
20260503230516 57 293 2.0 8.0 0.00 0.00 0.00 30 1010.2
20260503230014 58 276 1.0 9.0 0.00 0.00 0.00 30 1010.1
20260503225520 58 291 4.0 9.0 0.00 0.00 0.00 29 1010.1
20260503225020 58 281 3.0 9.0 0.00 0.00 0.00 30 1010.1
20260503224536 58 284 3.0 9.0 0.00 0.00 0.00 30 1010.1
20260503224036 58 279 2.0 10.0 0.00 0.00 0.00 31 1010.1
20260503223548 58 268 3.0 12.0 0.00 0.00 0.00 31 1010.0
20260503223056 58 292 5.0 12.0 0.00 0.00 0.00 31 1010.1
20260503223006 58 293 5.0 12.0 0.00 0.00 0.00 31 1010.0
20260503222509 58 289 5.0 12.0 0.00 0.00 0.00 30 1009.9
20260503222021 58 290 3.0 9.0 0.00 0.00 0.00 32 1009.9
20260503221521 57 318 3.0 12.0 0.00 0.00 0.00 33 1009.8
20260503221041 57 311 5.0 12.0 0.00 0.00 0.00 32 1010.0
20260503220546 57 297 5.0 11.0 0.00 0.00 0.00 32 1009.8
20260503220106 57 357 3.0 11.0 0.00 0.00 0.00 32 1009.9
20260503215507 57 297 2.0 9.0 0.00 0.00 0.00 31 1009.9
20260503215019 57 318 4.0 13.0 0.00 0.00 0.00 32 1009.9
20260503214532 57 345 7.0 19.0 0.00 0.00 0.00 31 1009.8
20260503214039 57 303 9.0 19.0 0.00 0.00 0.00 31 1009.9
20260503213550 57 295 7.0 13.0 0.00 0.00 0.00 32 1009.8
20260503213001 57 340 7.0 17.0 0.00 0.00 0.00 32 1009.8
20260503212512 57 349 5.0 16.0 0.00 0.00 0.00 32 1009.8
20260503212024 57 335 6.0 21.0 0.00 0.00 0.00 32 1009.8
20260503211530 57 330 5.0 21.0 0.00 0.00 0.00 33 1009.8
20260503211035 56 307 8.0 18.0 0.00 0.00 0.00 31 1009.9
20260503210535 56 293 8.0 17.0 0.00 0.00 0.00 33 1009.8
20260503210055 56 316 6.0 20.0 0.00 0.00 0.00 33 1009.9
20260503205601 56 293 8.0 20.0 0.00 0.00 0.00 32 1009.8
20260503205012 56 288 8.0 24.0 0.00 0.00 0.00 33 1009.7
20260503204518 56 310 13.0 24.0 0.00 0.00 0.00 32 1009.7
20260503204031 56 335 6.0 18.0 0.00 0.00 0.00 34 1009.7
20260503203541 56 276 7.0 16.0 0.00 0.00 0.00 33 1009.7
20260503203100 56 302 5.0 12.0 0.00 0.00 0.00 33 1009.8
20260503202503 55 340 4.0 19.0 0.00 0.00 0.00 34 1009.7
20260503202016 55 335 6.0 15.0 0.00 0.00 0.00 35 1009.8
20260503201533 55 320 5.0 16.0 0.00 0.00 0.00 34 1009.8
20260503201039 54 301 8.0 20.0 0.00 0.00 0.00 34 1009.8
20260503200545 54 284 8.0 20.0 0.00 0.00 0.00 34 1009.8
20260503200052 55 340 9.0 19.0 0.00 0.00 0.00 34 1009.9
20260503195552 54 300 8.0 18.0 0.00 0.00 0.00 35 1009.9
20260503195057 55 311 8.0 24.0 0.00 0.00 0.00 35 1009.8
20260503194620 55 301 7.0 24.0 0.00 0.00 0.00 33 1009.8
20260503194505 55 260 7.0 24.0 0.00 0.00 0.00 33 1009.7
20260503194004 56 293 8.0 17.0 0.00 0.00 0.00 33 1009.7
20260503193512 56 280 11.0 17.0 0.00 0.00 0.00 33 1009.7
20260503193011 56 306 8.0 17.0 0.00 0.00 0.00 33 1009.6
20260503192519 57 284 8.0 17.0 0.00 0.00 0.00 33 1009.7
20260503192020 57 268 3.0 19.0 0.00 0.00 0.00 34 1009.7
20260503191530 56 312 5.0 20.0 0.00 0.00 0.00 33 1009.7
20260503191035 57 295 10.0 20.0 0.00 0.00 0.00 32 1009.8
20260503190552 57 222 6.0 16.0 0.00 0.00 0.00 33 1009.6
20260503185511 57 289 7.0 18.0 0.00 0.00 0.00 31 1009.6
20260503185023 57 316 8.0 14.0 0.00 0.00 0.00 32 1009.8
20260503184529 56 283 7.0 16.0 0.00 0.00 0.00 32 1009.6